Ballenas Island, British Columbia

7:02 AM PDT on April 21, 2018 (GMT -0700)
Ballenas Island

Weather History for CWGB - October, 2013

Change the Weather History Date:

Tuesday, October 15, 2013

  Actual Average Record
Temperature  
Mean Temperature 52 °F -  
Max Temperature 55 °F - - ()
Min Temperature 48 °F - - ()
Degree Days  
Heating Degree Days 14    
Growing Degree Days 2 (Base 50)    
Moisture  
Dew Point 48 °F    
Average Humidity 86    
Maximum Humidity 90    
Minimum Humidity 80    
Precipitation  
Precipitation 0.00 in - - ()
Sea Level Pressure  
Sea Level Pressure 30.29 in    
Wind  
Wind Speed 6 mph ()    
Max Wind Speed 10 mph    
Max Gust Speed -    
T = Trace of Precipitation, MM = Missing Value Source: Averaged Metar Reports

Daily Weather History Graph

Daily Weather History Graph

Search for Another Location

Airport or City:

Astronomy

Oct. 15, 2013 Rise Set
Actual Time 7:38 AM PDT 6:25 PM PDT
Civil Twilight 7:06 AM PDT 6:57 PM PDT
Nautical Twilight 6:29 AM PDT 7:34 PM PDT
Astronomical Twilight 5:52 AM PDT 8:11 PM PDT
Moon 4:47 PM PDT (10/15) 3:50 AM PDT (10/15)
Length of Visible Light 11h 51m
Length of Day
10h 47m
Waxing Gibbous, 88% of the Moon is Illuminated
Oct 15
Waxing Gibbous
Oct 18
Full
Oct 26
Last Quarter
Nov 3
New
Nov 9
First Quarter

Hourly Weather History & Observations

Time (PDT) Temp. Dew Point Humidity Pressure Visibility Wind Dir Wind Speed Gust Speed Precip Events Conditions
12:00 AM 51.1 °F 47.1 °F 86% 30.38 in - West 8.1 mph - N/A   Unknown
1:00 AM 50.0 °F 46.2 °F 87% 30.37 in - WSW 6.9 mph - N/A   Unknown
2:00 AM 50.5 °F 46.2 °F 85% 30.38 in - WSW 5.8 mph - N/A   Unknown
3:00 AM 49.5 °F 45.5 °F 86% 30.37 in - SW 6.9 mph - N/A   Unknown
4:00 AM 49.5 °F 45.3 °F 86% 30.35 in - WSW 5.8 mph - N/A   Unknown
5:00 AM 50 °F 46 °F 81% 30.35 in - WSW 5.8 mph - -  
5:00 AM 49.8 °F 46.0 °F 87% 30.35 in - WSW 5.8 mph - N/A   Unknown
6:00 AM 50.7 °F 47.3 °F 88% 30.35 in - West 6.9 mph - N/A   Unknown
7:00 AM 48.9 °F 45.3 °F 87% 30.33 in - WSW 6.9 mph - N/A   Unknown
8:00 AM 49.3 °F 46.0 °F 89% 30.34 in - WSW 4.6 mph - N/A   Unknown
9:00 AM 49.8 °F 46.4 °F 88% 30.34 in - WSW 5.8 mph - N/A   Unknown
10:00 AM 50.5 °F 46.8 °F 87% 30.34 in - West 5.8 mph - N/A   Unknown
11:00 AM 51 °F 47 °F 81% 30.32 in - West 5.8 mph - -  
11:00 AM 51.3 °F 46.9 °F 85% 30.32 in - West 5.8 mph - N/A   Unknown
12:00 PM 53.6 °F 49.1 °F 85% 30.31 in - NNW 5.8 mph - N/A   Unknown
1:00 PM 53.1 °F 48.7 °F 85% 30.31 in - WNW 5.8 mph - N/A   Unknown
2:00 PM 52.3 °F 48.2 °F 86% 30.27 in - West 4.6 mph - N/A   Unknown
3:00 PM 54.7 °F 50.2 °F 85% 30.25 in - NW 2.3 mph - N/A   Unknown
4:00 PM 54.0 °F 48.9 °F 83% 30.23 in - North 1.2 mph - N/A   Unknown
5:00 PM 54 °F 50 °F 80% 30.22 in - Calm Calm - -  
5:00 PM 54.3 °F 49.6 °F 84% 30.22 in - Calm Calm - N/A   Unknown
6:00 PM 52.7 °F 48.9 °F 87% 30.21 in - West 10.4 mph - N/A   Unknown
7:00 PM 52.9 °F 48.9 °F 86% 30.20 in - West 8.1 mph - N/A   Unknown
8:00 PM 52.9 °F 48.9 °F 86% 30.19 in - West 10.4 mph - N/A   Unknown
9:00 PM 52.5 °F 48.7 °F 87% 30.18 in - West 9.2 mph - N/A   Unknown
10:00 PM 51.3 °F 48.2 °F 89% 30.18 in - WSW 6.9 mph - N/A   Unknown
11:00 PM 51 °F 48 °F 87% 30.18 in - West 9.2 mph - -  
11:00 PM 51.3 °F 48.4 °F 90% 30.18 in - West 9.2 mph - N/A   Unknown